[[{"header":{"parameterUnit":"m.s-1","parameterCategory":1,"la1":30.2991,"la2":30.254,"lo1":-89.0895,"lo2":-89.0444,"dy":0.0017,"dx":0.0017,"nx":28,"ny":28,"refTime":"2024-03-25T03:00:00:Z","depth":0,"parameterNumber":2,"parameterNumberName":"U-component_of_WINDS"},"data":[0,0,0,0,0,0,0,0,0,0,0,0,0,0,0,0,0,0,0,0,0,0,0,0,0,0,0,0,0,0,0,0,0,0,0,0,0,0,0,0,0,0,0,0,0,0,0,0,0,0,0,0,0,0,0,0,0,0,-5.5962,-5.5963,0,-5.6062,-5.6063,-5.6064,-5.6047,-5.6045,-5.6043,-5.6041,-5.6141,-5.6145,-5.615,0,0,0,0,0,0,0,0,0,0,0,0,0,-5.5754,-5.5758,-5.5962,-5.5963,-5.5965,-5.6062,-5.6063,-5.6065,-5.6047,-5.6045,-5.6043,-5.6041,-5.614,-5.6145,-5.615,0,0,0,0,0,0,0,0,0,0,0,0,0,-5.5848,-5.5759,-5.5962,-5.5968,-5.5969,-5.6062,-5.6063,-5.6065,-5.6047,-5.6045,-5.6042,-5.604,-5.6138,-5.6144,-5.6151,-5.6243,0,0,-5.617,-5.6173,0,0,0,0,0,0,0,0,-5.5843,-5.5856,-5.5965,-5.5967,-5.5969,-5.6039,-5.6027,-5.6125,-5.6048,-5.6018,-5.6041,-5.6038,-5.6109,-5.6118,-5.6142,-5.6248,-5.6252,-5.6171,-5.6175,-5.6178,-5.618,0,0,0,0,0,0,0,-5.5836,-5.5851,-5.6002,-5.5967,-5.5969,-5.5964,-5.5975,-5.6045,-5.6077,-5.602,-5.6019,-5.6031,-5.611,-5.6136,-5.6145,-5.6254,-5.6171,-5.6177,-5.6181,-5.6183,-5.644,-5.6443,0,0,0,0,0,0,-5.5828,-5.5846,-5.5998,-5.6005,-5.5898,-5.597,-5.5982,-5.6019,-5.6076,-5.6082,-5.6033,-5.603,-5.6127,-5.6137,-5.6148,-5.626,-5.6178,-5.6184,-5.6187,-5.6437,-5.6441,-5.6444,0,0,0,0,0,0,-5.5824,-5.5842,-5.5994,-5.5925,-5.5944,-5.5977,-5.6019,-5.6023,-5.6049,-5.6086,-5.6092,-5.6055,-5.6125,-5.6139,-5.622,-5.6263,-5.6187,-5.6193,-5.6434,-5.6438,-5.6442,-5.6484,0,0,0,0,0,0,-5.5818,-5.5841,-5.5876,-5.5926,-5.5948,-5.6065,-5.6021,-5.6027,-5.6061,-5.6057,-5.6108,-5.6113,-5.6124,-5.621,-5.6226,-5.627,-5.6198,-5.643,-5.6436,-5.6441,-5.6479,-5.6489,-5.6498,0,0,0,0,0,-5.5811,-5.5884,-5.5878,-5.5897,-5.5994,-5.6068,-5.608,-5.6091,-5.6064,-5.61,-5.6124,-5.6112,-5.6256,-5.6219,-5.6237,-5.6283,-5.6427,-5.6434,-5.6441,-5.6474,-5.6487,-5.6498,0,0,0,0,0,0,-5.5837,-5.589,-5.5885,-5.5976,-5.6018,-5.6065,-5.611,-5.6104,-5.6154,-5.6148,-5.616,-5.6171,-5.6253,-5.6277,-5.6234,-5.6376,-5.6338,-5.6348,-5.6357,-5.637,-5.6379,-5.6371,-5.6203,0,0,0,0,0,-5.5854,-5.591,-5.5953,-5.603,-5.6051,-5.6077,-5.611,-5.6115,-5.6158,-5.6175,-5.6205,-5.6247,-5.6301,-5.6337,-5.6389,-5.6483,-5.6493,-5.6523,-5.6533,-5.6541,-5.6549,-5.66,-5.6613,-5.6466,-5.6466,-5.6466,0,0,-5.5888,-5.5924,-5.5959,-5.6036,-5.6069,-5.6126,-5.6092,-5.6154,-5.6197,-5.6185,-5.6263,-5.6286,-5.6333,-5.6421,-5.6461,-5.6443,-5.6593,-5.6549,-5.6555,-5.6559,-5.6608,-5.6622,-5.6634,-5.647,-5.647,-5.6469,0,0,-5.598,-5.6014,-5.6081,-5.6115,-5.6165,-5.6182,-5.6198,-5.6247,-5.6262,-5.6341,-5.6333,-5.6384,-5.6478,-5.6512,-5.6541,-5.6648,-5.6638,-5.6664,-5.6714,-5.6763,-5.6775,-5.6785,-5.6822,-5.6835,-5.6673,-5.6673,-5.6673,0,-5.6016,-5.6103,-5.6116,-5.6179,-5.6213,-5.6206,-5.6274,-5.6306,-5.637,-5.6393,-5.6373,-5.6491,-5.6522,-5.6617,-5.6643,-5.6668,-5.6686,-5.6658,-5.6772,-5.6783,-5.6792,-5.6828,-5.6842,-5.6676,-5.6676,-5.6675,-5.6675,0,-5.6145,-5.6206,-5.6254,-5.6317,-5.6356,-5.6422,-5.6443,-5.6482,-5.6484,-5.6503,-5.6584,-5.6621,-5.6681,-5.6705,-5.6707,-5.68,-5.6787,-5.677,-5.6731,-5.6809,-5.6842,-5.6856,-5.668,-5.6679,-5.6678,-5.6677,0,0,-5.6255,-5.6325,-5.6343,-5.6371,-5.6427,-5.6473,-5.6538,-5.6598,-5.663,-5.6675,-5.6729,-5.681,-5.6794,-5.6828,-5.6834,-5.6877,-5.6958,-5.6854,-5.6855,-5.6871,-5.7062,-5.7074,-5.7089,-5.6953,-5.6956,-5.6958,-5.7057,0,-5.6351,-5.6466,-5.648,-5.6582,-5.6637,-5.6632,-5.6689,-5.6729,-5.6749,-5.6798,-5.682,-5.6877,-5.6852,-5.6872,-5.6915,-5.6939,-5.6996,-5.6932,-5.7002,-5.7004,-5.6989,-5.7107,-5.712,-5.7212,-5.7071,-5.7073,-5.7074,0,-5.6479,-5.6528,-5.6636,-5.6684,-5.6708,-5.6758,-5.6814,-5.6862,-5.6907,-5.6919,-5.6957,-5.6958,-5.7024,-5.6985,-5.7076,-5.7033,-5.7062,-5.7079,-5.7082,-5.7088,-5.7043,-5.7114,-5.7242,-5.7255,-5.7095,-5.7094,-5.7092,0,-5.6546,-5.664,-5.6717,-5.6742,-5.68,-5.6835,-5.6861,-5.6904,-5.6939,-5.6988,-5.701,-5.7066,-5.7096,-5.7139,-5.7155,-5.7125,-5.7245,-5.7207,-5.7255,-5.7255,-5.7279,-5.7277,-5.7412,-5.7301,-5.7301,-5.73,-5.73,0,-5.6652,-5.6718,-5.6748,-5.6795,-5.6869,-5.6884,-5.6956,-5.698,-5.7018,-5.7069,-5.7069,-5.7116,-5.7135,-5.7186,-5.7199,-5.7272,-5.7286,-5.7297,-5.7299,-5.7296,-5.7295,-5.7314,-5.7308,-5.7304,-5.7303,-5.7303,-5.7302,0,-5.6739,-5.6763,-5.6846,-5.6894,-5.6908,-5.696,-5.7002,-5.7047,-5.7067,-5.7131,-5.7147,-5.7178,-5.7238,-5.7259,-5.7332,-5.734,-5.7425,-5.7423,-5.741,-5.741,-5.7456,-5.7451,-5.7607,-5.7628,-5.7505,-5.7506,-5.7507,0,-5.6804,-5.6855,-5.691,-5.6944,-5.6971,-5.7027,-5.7063,-5.708,-5.7117,-5.7173,-5.7211,-5.7271,-5.7319,-5.7415,-5.7443,-5.7499,-5.7497,-5.7548,-5.7505,-5.75,-5.7496,-5.7492,-5.7497,-5.7555,-5.7556,-5.7557,-5.7558,0,-5.6917,-5.6926,-5.6978,-5.7034,-5.7077,-5.7122,-5.7166,-5.7194,-5.7217,-5.7259,-5.7321,-5.7358,-5.7433,-5.7492,-5.7549,-5.7575,-5.757,-5.7572,-5.7586,-5.7582,-5.7572,-5.7577,-5.743,-5.7568,-5.7567,-5.7566,-5.7566,-5.7565,-5.6995,-5.7039,-5.7085,-5.7142,-5.7177,-5.7218,-5.7263,-5.7289,-5.734,-5.7403,-5.741,-5.7476,-5.752,-5.7596,-5.7624,-5.7676,-5.7662,-5.7682,-5.7687,-5.7691,-5.7694,-5.7566,-5.7687,-5.7686,-5.7686,-5.7686,-5.7686,0,-5.7106,-5.7135,-5.7189,-5.725,-5.7295,-5.7289,-5.7336,-5.7375,-5.7433,-5.7475,-5.7523,-5.7593,-5.7651,-5.7684,-5.7742,-5.7777,-5.7776,-5.7791,-5.7788,-5.7794,-5.7704,-5.7686,-5.779,-5.779,-5.779,-5.779,-5.779,-5.779,-5.717,-5.7244,-5.7259,-5.7351,-5.738,-5.7445,-5.7473,-5.751,-5.7543,-5.7622,-5.767,-5.7692,-5.7731,-5.7791,-5.7843,-5.7852,-5.7872,-5.7888,-5.7895,-5.7811,-5.78,-5.779,-5.7772,-5.7893,-5.7893,-5.798,-5.7981,-5.7981]},{"header":{"parameterUnit":"m.s-1","parameterCategory":1,"la1":30.2991,"la2":30.254,"lo1":-89.0895,"lo2":-89.0444,"dy":0.0017,"dx":0.0017,"nx":28,"ny":28,"refTime":"2024-03-25T03:00:00:Z","depth":0,"parameterNumber":3,"parameterNumberName":"V-component_of_WINDS"},"data":[0,0,0,0,0,0,0,0,0,0,0,0,0,0,0,0,0,0,0,0,0,0,0,0,0,0,0,0,0,0,0,0,0,0,0,0,0,0,0,0,0,0,0,0,0,0,0,0,0,0,0,0,0,0,0,0,0,0,4.56,4.5601,0,4.5677,4.5678,4.5679,4.5664,4.5663,4.5662,4.566,4.5739,4.5742,4.5746,0,0,0,0,0,0,0,0,0,0,0,0,0,4.5443,4.5446,4.56,4.5601,4.5602,4.5677,4.5678,4.5679,4.5665,4.5663,4.5661,4.566,4.5738,4.5742,4.5746,0,0,0,0,0,0,0,0,0,0,0,0,0,4.5514,4.5446,4.56,4.5604,4.5605,4.5676,4.5678,4.5679,4.5665,4.5663,4.5661,4.5659,4.5737,4.5742,4.5747,4.5819,0,0,4.5762,4.5764,0,0,0,0,0,0,0,0,4.551,4.552,4.5602,4.5604,4.5605,4.5659,4.5651,4.5726,4.5666,4.5642,4.566,4.5658,4.5714,4.5721,4.574,4.5822,4.5826,4.5762,4.5765,4.5768,4.5769,0,0,0,0,0,0,0,4.5505,4.5517,4.563,4.5604,4.5605,4.5602,4.561,4.5665,4.5689,4.5644,4.5643,4.5653,4.5714,4.5735,4.5741,4.5827,4.5762,4.5767,4.577,4.5772,4.5975,4.5977,0,0,0,0,0,0,4.5499,4.5513,4.5628,4.5633,4.5552,4.5607,4.5616,4.5644,4.5688,4.5693,4.5654,4.5652,4.5727,4.5736,4.5744,4.5833,4.5768,4.5772,4.5775,4.5972,4.5975,4.5978,0,0,0,0,0,0,4.5496,4.5509,4.5625,4.5573,4.5587,4.5612,4.5643,4.5646,4.5667,4.5696,4.57,4.5671,4.5726,4.5737,4.5801,4.5836,4.5775,4.5779,4.597,4.5973,4.5976,4.6011,0,0,0,0,0,0,4.5491,4.5508,4.5536,4.5573,4.559,4.568,4.5646,4.5649,4.5676,4.5673,4.5712,4.5717,4.5725,4.5793,4.5806,4.5842,4.5783,4.5967,4.5971,4.5975,4.6007,4.6015,4.6022,0,0,0,0,0,4.5486,4.5542,4.5537,4.5551,4.5625,4.5682,4.5692,4.57,4.5678,4.5707,4.5725,4.5716,4.583,4.58,4.5814,4.5852,4.5964,4.597,4.5975,4.6003,4.6013,4.6022,0,0,0,0,0,0,4.5507,4.5547,4.5542,4.5612,4.5644,4.5679,4.5715,4.571,4.5749,4.5745,4.5753,4.5762,4.5828,4.5846,4.5812,4.5925,4.5894,4.5902,4.5911,4.5921,4.5928,4.5923,4.5787,0,0,0,0,0,4.552,4.5563,4.5595,4.5654,4.567,4.569,4.5715,4.5719,4.5753,4.5766,4.5789,4.5822,4.5866,4.5894,4.5935,4.6009,4.6018,4.6042,4.605,4.6056,4.6063,4.6106,4.6117,4.5995,4.5995,4.5995,0,0,4.5547,4.5574,4.5601,4.5659,4.5684,4.573,4.5702,4.575,4.5784,4.5773,4.5835,4.5854,4.5891,4.5961,4.5992,4.5978,4.6099,4.6063,4.6067,4.6072,4.6112,4.6124,4.6134,4.5999,4.5998,4.5998,0,0,4.562,4.5644,4.5697,4.5723,4.5761,4.5774,4.5787,4.5824,4.5836,4.5898,4.5892,4.5932,4.6006,4.6034,4.6057,4.6142,4.6135,4.6155,4.6196,4.6237,4.6247,4.6256,4.6288,4.6299,4.6162,4.6162,4.6163,0,4.565,4.5717,4.5724,4.5774,4.5801,4.5794,4.5847,4.5872,4.5922,4.5941,4.5924,4.6018,4.6042,4.6119,4.614,4.6159,4.6175,4.6151,4.6245,4.6254,4.6262,4.6292,4.6304,4.6165,4.6164,4.6164,4.6164,0,4.5752,4.5799,4.5836,4.5886,4.5916,4.5968,4.5984,4.6014,4.6015,4.603,4.6095,4.6124,4.6172,4.619,4.6191,4.6268,4.6258,4.6243,4.6212,4.6276,4.6305,4.6316,4.6168,4.6167,4.6167,4.6166,0,0,4.5841,4.5894,4.5908,4.5931,4.5973,4.601,4.6062,4.6109,4.6136,4.617,4.6215,4.6278,4.6265,4.6292,4.6297,4.6332,4.64,4.6313,4.6314,4.633,4.6488,4.65,4.6513,4.6395,4.6397,4.6399,4.6485,0,4.5919,4.601,4.6019,4.6101,4.6146,4.614,4.6185,4.6216,4.6232,4.6272,4.6289,4.6335,4.6313,4.6329,4.6364,4.6384,4.6432,4.6378,4.6438,4.644,4.643,4.6528,4.6541,4.6621,4.6496,4.6498,4.65,0,4.6023,4.6061,4.6148,4.6186,4.6205,4.6245,4.629,4.6328,4.6364,4.6373,4.6404,4.6404,4.6458,4.6425,4.65,4.6463,4.6488,4.6502,4.6505,4.6512,4.6475,4.6539,4.6646,4.6659,4.6517,4.6516,4.6515,0,4.6081,4.6155,4.6217,4.6236,4.6281,4.631,4.633,4.6364,4.6392,4.6431,4.645,4.6495,4.652,4.6555,4.6567,4.6542,4.6643,4.661,4.6653,4.6653,4.6676,4.6674,4.679,4.6689,4.6689,4.6689,4.6689,0,4.6169,4.6223,4.6244,4.6282,4.6342,4.6352,4.6412,4.643,4.6461,4.6503,4.65,4.654,4.6553,4.6596,4.6606,4.6668,4.6679,4.6688,4.6691,4.669,4.6689,4.6707,4.6703,4.6692,4.6691,4.6691,4.669,0,4.6245,4.6261,4.6329,4.6366,4.6376,4.642,4.6452,4.6489,4.6504,4.6558,4.6571,4.6595,4.6645,4.666,4.672,4.6727,4.68,4.6797,4.6789,4.6789,4.6832,4.6828,4.6964,4.6983,4.6869,4.687,4.6871,0,4.6301,4.6342,4.6384,4.6412,4.6434,4.6479,4.6508,4.6519,4.655,4.6594,4.6627,4.6676,4.6716,4.6796,4.6819,4.6866,4.6865,4.6909,4.6871,4.687,4.6867,4.6866,4.6871,4.6916,4.6918,4.6918,4.6919,0,4.6398,4.6404,4.6446,4.6492,4.6527,4.6563,4.6598,4.6621,4.6637,4.6672,4.6723,4.6755,4.6816,4.6866,4.6914,4.6935,4.6931,4.6931,4.6943,4.6944,4.6938,4.6943,4.681,4.6928,4.6927,4.6926,4.6926,4.6926,4.6467,4.6504,4.654,4.6587,4.6615,4.6648,4.6685,4.6705,4.6748,4.6799,4.6803,4.6859,4.6895,4.6958,4.6982,4.7026,4.7014,4.7031,4.7036,4.7041,4.7045,4.6929,4.7034,4.7034,4.7034,4.7034,4.7034,0,4.6566,4.6589,4.6632,4.6682,4.6719,4.6711,4.675,4.6782,4.6831,4.6865,4.6905,4.6965,4.7013,4.704,4.7089,4.7119,4.7118,4.7132,4.713,4.7136,4.7053,4.7038,4.7131,4.7131,4.7131,4.7131,4.7131,4.7131,4.6623,4.6686,4.6696,4.6773,4.6795,4.685,4.6873,4.6904,4.6931,4.6998,4.7038,4.7055,4.7087,4.7138,4.7182,4.7189,4.7208,4.7223,4.7229,4.7151,4.7141,4.7132,4.7118,4.7226,4.7227,4.7308,4.7309,4.7309]}]]